This is the latest recevied weather packets stored in our database for station/object DO9LL-1. If no packets are shown the sender has not sent any weather packets the latest 10 day(s).
| Time | Temp. | Humidity | Pressure | Rain* | Wind** | Luminosity | Snow |
|---|---|---|---|---|---|---|---|
| 1777736846 | 23.89° C | 51% | 1014.6 hPa | 0 mm | - | - | - |
| 1777736242 | 24.44° C | 51% | 1014.6 hPa | 0 mm | - | - | - |
| 1777735639 | 24.44° C | 51% | 1014.9 hPa | 0 mm | - | - | - |
| 1777735036 | 24.44° C | 50% | 1014.9 hPa | 0 mm | - | - | - |
| 1777734453 | 23.89° C | 51% | 1015.1 hPa | 0 mm | - | - | - |
| 1777733849 | 23.89° C | 52% | 1015.2 hPa | 0 mm | - | - | - |
| 1777733246 | 24.44° C | 50% | 1015.3 hPa | 0 mm | - | - | - |
| 1777732663 | 23.89° C | 51% | 1015.5 hPa | 0 mm | - | - | - |
| 1777732040 | 24.44° C | 49% | 1015.6 hPa | 0 mm | - | - | - |
| 1777731476 | 24.44° C | 50% | 1015.7 hPa | 0 mm | - | - | - |
| 1777730853 | 23.89° C | 51% | 1015.7 hPa | 0 mm | - | - | - |
| 1777730250 | 24.44° C | 51% | 1015.7 hPa | 0 mm | - | - | - |
| 1777729647 | 23.89° C | 51% | 1015.9 hPa | 0 mm | - | - | - |
| 1777729043 | 24.44° C | 50% | 1015.8 hPa | 0 mm | - | - | - |
| 1777728440 | 24.44° C | 49% | 1016 hPa | 0 mm | - | - | - |
| 1777727837 | 24.44° C | 50% | 1016 hPa | 0 mm | - | - | - |
| 1777727254 | 24.44° C | 48% | 1016 hPa | 0 mm | - | - | - |
| 1777726650 | 23.89° C | 49% | 1016.3 hPa | 0 mm | - | - | - |
| 1777726047 | 24.44° C | 49% | 1016.3 hPa | 0 mm | - | - | - |
| 1777725444 | 25° C | 48% | 1016.4 hPa | 0 mm | - | - | - |
| 1777724841 | 23.89° C | 50% | 1016.5 hPa | 0 mm | - | - | - |
| 1777724238 | 24.44° C | 49% | 1016.6 hPa | 0 mm | - | - | - |
| 1777723654 | 23.89° C | 48% | 1016.8 hPa | 0 mm | - | - | - |
| 1777723051 | 23.33° C | 50% | 1016.8 hPa | 0 mm | - | - | - |
| 1777722448 | 23.33° C | 51% | 1016.9 hPa | 0 mm | - | - | - |
* Rain latest hour (hover to see other rain measurements)
** Current wind speed in m/s (hover to see current wind gust speed)